Home > Weather > Wolfsburg > Past weeks

Flag for Germany Past Weather in Wolfsburg, Lower Saxony, Germany — Yesterday and Last 2 Weeks

Now
72 °F

Broken clouds.


Feels Like: 74 °F
Forecast: 64 / 85 °F
Wind: 3 mph from North

Location: Celle Airport

Current Time: Jul 23, 2016 at 9:27:06 PM

Latest Report: Jul 23, 2016 at 8:20 PM


Visibility: N/A

Pressure: 30.07 "Hg

Humidity: 73%

Dew Point: 63 °F

Location of WolfsburgLocation

Past Weather in Wolfsburg — Graph

°F

Wolfsburg Temperature Yesterday

Maximum temperature yesterday: 82 °F (at 12:20 PM)
Minimum temperature yesterday: 59 °F (at 5:20 AM)
Average temperature yesterday: 70 °F

High & Low Weather Summary for the Past Weeks

 TemperatureHumidityPressure
High88 °F (Jul 20, 4:20 PM)100% (Jul 13, 11:20 PM)30.24 "Hg (Jul 13, 11:20 PM)
Low46 °F (Jul 16, 5:20 AM)31% (Jul 20, 3:20 PM)29.71 "Hg (Jul 10, 11:20 PM)
Average67 °F69%30.01 "Hg
* Reported Jul 8 7:20 PM — Jul 23 7:20 PM, Wolfsburg, Weather by CustomWeather, © 2016

Note: Actual official high and low records may vary slightly from our data, if they occured in-between our weather recording intervals... More about our weather records

Advertising

Wolfsburg Weather History for the Previous 24 Hours

Scroll right to see more
 ConditionsComfort  
Time TempWeatherWind HumidityBarometerVisibility
7:20 PM
Sat, Jul 23
73 °FLight rain. Broken clouds.6 mph65%30.07 "HgN/A
6:20 PM75 °FPartly sunny.6 mph57%30.07 "HgN/A
5:20 PM75 °FMostly cloudy.5 mph54%30.09 "HgN/A
4:20 PM75 °FPartly sunny.7 mph57%30.09 "HgN/A
3:20 PM77 °FBroken clouds.6 mph51%30.09 "HgN/A
2:20 PM75 °FBroken clouds.3 mph57%30.09 "HgN/A
1:20 PM70 °FMostly cloudy.5 mph69%30.09 "HgN/A
12:20 PM68 °FPartly sunny.3 mph73%30.09 "HgN/A
11:20 AM66 °FBroken clouds.3 mph73%30.09 "HgN/A
10:20 AM66 °FBroken clouds.1 mph78%30.09 "HgN/A
9:20 AM64 °FLight rain. Broken clouds.5 mph83%30.07 "HgN/A
8:20 AM64 °FLight rain. Broken clouds.2 mph83%30.07 "HgN/A
7:20 AM64 °FLight rain. Broken clouds.3 mph88%30.07 "HgN/A
6:20 AM63 °FSprinkles. Partly cloudy.1 mph94%30.07 "Hg6 mi
5:20 AM63 °FPartly cloudy.2 mph94%30.07 "Hg6 mi
4:20 AM61 °FPassing clouds.1 mph94%30.04 "HgN/A
3:20 AM61 °FPassing clouds.1 mph100%30.04 "HgN/A
2:20 AM61 °FPassing clouds.3 mph94%30.04 "HgN/A
1:20 AM63 °FPassing clouds.1 mph94%30.07 "HgN/A
12:20 AM66 °FPassing clouds.2 mph83%30.04 "HgN/A
11:20 PM
Fri, Jul 22
66 °FPassing clouds.2 mph88%30.04 "HgN/A
10:20 PM68 °FBroken clouds.3 mph78%30.04 "HgN/A
9:20 PM68 °FBroken clouds.3 mph78%30.04 "HgN/A
Weather by CustomWeather, © 2016

See weather overviewHow to use our weather pages